User: anonymous   Login
Location: Unspecified
(0.0000°N, 0.0000°E)
Time: 10:18:07
(UTC+00:00)
Language:

LilacSat-2 - Orbit

View from above orbital plane
View from above orbital plane
View from above satellite
View from above satellite

Ground track
Ground track

The orbit data is extracted from the following two-line orbital elements,

1 40908U 15049K   19082.00175388  .00000567  00000-0  34979-4 0  9996
2 40908  97.4775  84.2043 0016942 140.5195 276.2127 15.13728714193548
Epoch (UTC): 23 March 2019 00:02:31
Eccentricity: 0.0016942
inclination: 97.4775°
perigee height: 513 km
apogee height: 536 km
right ascension of ascending node: 84.2043°
argument of perigee: 140.5195°
revolutions per day: 15.13728714
mean anomaly at epoch: 276.2127°
orbit number at epoch: 19354

The dashed part of the orbit path shows where the satellite is in the earth's shadow,  

DLR